Regional Weather Roundup
Issued by NWS

Home | Current Version | Previous Version | Text Only | Print | Product List | Glossary On
Versions: 1 2 3 4 5 6 7 8 9 10 11 12 13 14 15 16 17 18 19 20 21 22 23 24 25 26 27 28 29 30 31 32 33 34 35 36 37 38 39 40 41 42 43 44 45 46 47 48 49 50
000
ASUS43 KDTX 250301
RWRMI
MICHIGAN HOURLY REGIONAL WEATHER ROUNDUP
NATIONAL WEATHER SERVICE DETROIT/PONTIAC MI
1100 PM EDT SAT SEP 24 2016

NOTE: "FAIR" INDICATES FEW OR NO CLOUDS BELOW 12,000 FEET WITH NO
SIGNIFICANT WEATHER AND/OR OBSTRUCTION TO VISIBILITY.

MIZ047>049-052>055-059>063-066>070-074>076-081>083-250400-
SOUTHEAST LOWER MICHIGAN

CITY           SKY/WX    TMP DP  RH WIND       PRES   REMARKS
ADRIAN         CLEAR     59  55  87 CALM      30.22R
ALMA           CLEAR     52  49  88 E7        30.24S
ANN ARBOR      CLEAR     57  47  69 NE5       30.22R
BAD AXE        CLEAR     44  44  97 CALM      30.26R
CARO           CLEAR     47  45  93 CALM      30.25R
DETROIT CITY   CLEAR     58  47  66 N3        30.23R
DETROIT        CLEAR     58  47  66 NE6       30.23R
FLINT          CLEAR     53  46  77 E6        30.24R
GROSSE ILE     CLEAR     59  49  70 E6        30.21S
HILLSDALE      CLEAR     57  52  82 E5        30.21R HAZE
HOWELL         CLEAR     55  49  82 CALM      30.23R

CITY           SKY/WX    TMP DP  RH WIND       PRES   REMARKS
JACKSON        CLEAR     57  51  80 E5        30.21R
LAMBERTVILLE   CLEAR     56  55  93 CALM      30.20F
LANSING        CLEAR     55  48  77 NE3       30.22S
LAPEER         FAIR      46  45  95 N3        30.25R
MASON          CLEAR     56  50  81 E6        30.22S
MONROE         CLEAR     59  52  78 NE5       30.20S
MT. CLEMENS    CLEAR     55  46  71 N5        30.21R
PONTIAC        CLEAR     54  45  71 E5        30.22S
PORT HOPE        N/A     62  49  62 E14       30.24R
PORT HURON     CLEAR     45  45 100 CALM      30.23S
TRI CITIES     CLEAR     53  46  77 E5        30.26R
MIDLAND        FAIR      50  46  87 CALM      30.25R
TROY           CLEAR     59  44  57 NE5       30.25S
SAGINAW HB     CLEAR     50  45  81 NE3       30.25R
$$
MIZ043>046-050>051-056>058-064>065-071>073-077>080-250400-
SOUTHWEST LOWER MICHIGAN

CITY           SKY/WX    TMP DP  RH WIND       PRES   REMARKS
BATTLE CREEK   CLEAR     62  53  72 E6        30.20S
BENTON HARBOR  CLEAR     63  58  83 E6        30.16S
BIG RAPIDS     CLEAR     56  50  81 CALM      30.24R
COLDWATER      CLEAR     60  54  79 E3        30.20R
FREMONT        FAIR      58  49  72 E7        30.21R
HOLLAND        CLEAR     60  53  77 E6        30.20R
GRAND RAPIDS   CLEAR     58  50  75 E9        30.21R
IONIA          FAIR      54  48  81 NE6       30.22R
KALAMAZOO      CLEAR     61  53  75 E5        30.19S
LUDINGTON      CLEAR     51  51  99 E5        30.21R
MARSHALL       CLEAR     58  53  84 CALM      30.20S
MUSKEGON       CLEAR     58  53  84 E7        30.20R
SOUTH HAVEN    CLEAR     63  59  88 E5        30.17S
$$
MIZ016>042-250400-
NORTHERN LOWER MICHIGAN

CITY           SKY/WX    TMP DP  RH WIND       PRES   REMARKS
ALPENA         CLEAR     46  42  86 CALM      30.27S
BEAVER ISLAND  CLEAR     54  48  81 E5        30.25R
BELLAIRE       CLEAR     54  47  76 CALM      30.25S
CADILLAC       CLEAR     53  47  81 SE7       30.24R
CHARLEVOIX     CLEAR     57  46  66 SE7       30.27S
FRANKFORT      CLEAR     53  49  89 CALM      30.22S
GAYLORD        CLEAR     51  43  74 S5        30.27R
GRAYLING       CLEAR     49  45  87 CALM      30.28R
HARBOR SPRINGS CLEAR     52  45  75 NE5       30.26R
HOUGHTON LAKE  CLEAR     48  45  89 E5        30.27R
MANISTEE       CLEAR     54  51  90 E5        30.22R
OSCODA         CLEAR     44  42  91 CALM      30.26R
PELLSTON       CLEAR     45  42  89 CALM      30.27R
ROGERS CITY    CLEAR     52  43  72 S3        30.27S
TRAVERSE CITY  CLEAR     58  49  72 CALM      30.22R
$$
MIZ007>008-015-250400-
EASTERN UPPER MICHIGAN

CITY           SKY/WX    TMP DP  RH WIND       PRES   REMARKS
KINROSS        CLEAR     51  44  77 CALM      30.27R
MACKINAC ISLAN PTCLDY    56  45  65 SE6       30.26S
NEWBERRY       CLEAR     49  46  89 SE3       30.26S
S. S. MARIE    PTCLDY    54  45  71 NE3       30.26R
MUNISING         N/A     50  47  89 S3        30.23S
$$
MIZ004>006-011>014-085-250400-
CENTRAL UPPER MICHIGAN

CITY           SKY/WX    TMP DP  RH WIND       PRES   REMARKS
MANISTIQUE     CLEAR     50  47  92 CALM      30.23F
ESCANABA       CLEAR     50  48  93 CALM      30.21F
MENOMINEE      PTCLDY    56  52  86 CALM      30.20
SAWYER-GWINN   CLEAR     51  46  83 S5        30.22F
$$
MIZ001>003-009>011-084-250400-
WESTERN UPPER MICHIGAN

CITY           SKY/WX    TMP DP  RH WIND       PRES   REMARKS
IRON MOUNTAIN  CLOUDY    57  48  72 SE6       30.20S
HOUGHTON       CLEAR     58  52  80 SE8       30.17F
COPPER HARBOR    N/A     62  51  67 SW12G18   30.16F
IRONWOOD       PTCLDY    62  54  74 VRB6      30.11F
$$

ABBREVIATIONS USED IN REMARKS
   TC - TEMPERATURE IN CELSIUS
  WCI - WIND CHILL INDEX
   HX - HEAT INDEX
  VSB - VISIBILITY




USA.gov is the U.S. government's official web portal to all federal, state and local government web resources and services.